GFSNE_con_sbcape_057.txt.gz
CAPE
2641 2433 1714 649 589 422 452 524 610 825 892 1881 450 1194 745 724 1015 1427 1915 1011 95 1 0 0 0 0 0 7 23 66 141 198 222 222 98 12 17 4
1651 3396 2939 1307 1228 872 743 667 638 601 625 590 616 1059 932 898 860 1196 1264 802 304 83 13 0 0 0 0 0 0 0 0 0 6 9 0 0 0 1
3005 2531 3519 3844 2112 1320 960 844 815 790 754 710 617 1360 2715 3289 2664 2422 1773 2260 1477 306 98 0 0 0 0 0 0 0 0 0 0 0 0 0 0 0
2926 3505 2553 2232 3997 3922 2319 3596 1923 2367 1172 2675 1751 1601 2871 2961 3191 3513 1987 1742 1883 1103 156 15 0 0 0 0 0 0 0 0 0 0 0 0 0 0
2988 3319 3228 3529 4145 2836 3631 2216 1623 2341 2355 2163 2299 2148 2239 2116 2623 3450 3612 3134 2269 1596 1016 295 4 0 0 0 0 0 0 0 0 0 0 0 0 0
3163 3288 3382 3700 4176 4536 3838 4493 3716 3315 2543 2330 2352 2414 2464 2846 2405 2283 2596 2660 2687 2172 1936 1880 1409 83 0 0 0 0 0 0 0 0 0 0 0 0
3274 3432 3307 3292 2612 3646 3240 4051 4127 3745 2712 2795 2570 2245 2041 2089 2778 2592 2717 3206 3627 3152 2858 3216 3195 3573 2957 0 0 0 0 0 0 0 0 0 0 0
3691 3682 3738 2450 2222 2025 2083 2227 2247 3927 4722 3208 2608 2514 3618 3493 3140 2999 3386 3224 3534 3255 4407 4537 4313 4107 3960 3784 2879 17 0 0 0 0 0 0 0 0
3632 3798 3280 1881 2637 3722 2074 1827 1633 1179 817 2941 3416 3548 3716 4121 4589 4651 3437 3933 4536 4266 3917 4054 3745 3868 3924 3145 2873 2292 185 0 0 0 0 0 0 0
3517 3678 3987 3719 3716 3463 3988 3768 3524 3696 3466 2347 2718 3308 3978 4226 4454 4089 4193 4191 4322 4111 4106 3886 3999 4011 4277 3995 2943 1704 732 0 0 0 0 0 0 0
3123 3202 3577 4082 3479 2670 3323 3554 3901 4082 2295 1566 1825 2700 2718 2180 1474 1831 2628 3729 3764 3492 3876 4244 4050 3827 2980 2664 2488 1314 1181 475 0 0 0 0 0 0
3218 3586 2497 2265 2705 2431 3286 3714 3880 4056 3820 3370 3312 2618 944 1426 641 1154 3594 3491 3781 3740 3901 3760 3273 2599 2380 2757 2492 2783 2169 1369 505 0 0 0 0 0
2125 1926 2239 1684 1563 1212 819 3486 3530 3632 3208 3092 2920 3581 3847 4320 4166 3478 4192 4243 3863 3488 3410 3431 2549 2645 2185 1619 1720 1856 1707 1640 1808 1066 0 0 0 0
2264 1248 1736 1039 357 309 38 870 1312 1383 2161 2520 2987 3416 3837 4179 3922 3997 4337 4443 4501 4389 4195 4358 2597 1594 1523 1446 1223 1332 1128 909 1342 1271 704 0 1 0
2478 1381 1280 1576 178 0 0 661 774 2043 2588 2981 3458 3707 3676 3816 2933 2637 4320 4540 4665 4779 3186 2501 1315 1349 828 846 600 225 32 3 34 40 69 1 1 3
1436 1979 2173 1916 1243 2217 2612 592 2015 3063 3357 3658 3962 3701 3166 2458 3147 3178 3089 1207 732 931 1908 1794 1471 1211 271 33 0 1 8 18 22 28 3 2 5 3
2380 2685 2552 2589 2912 3296 3799 3877 4029 4042 3862 3691 3447 2714 2955 3111 3459 2321 1053 788 701 702 799 667 1806 348 0 3 0 0 7 9 9 6 2 2 5 6
2255 3015 3269 3384 3566 3612 3832 4008 4007 3781 4129 3152 2599 2861 3108 2646 1872 1067 746 641 634 828 706 513 311 128 6 1 0 0 5 11 9 6 6 2 5 9
3623 3643 3645 3885 3770 3868 3900 3787 3592 3343 3043 2950 2961 2748 2138 1637 752 682 615 512 713 790 533 400 238 52 37 11 0 0 3 10 5 1 4 16 10 4
3855 3660 4302 4035 4460 4273 3840 3502 2954 2771 2686 2297 2102 1759 1355 899 721 721 468 530 738 595 264 334 416 112 12 17 11 1 0 5 3 4 6 5 1 0
3445 3762 3695 3582 3274 2323 1957 1586 1915 1652 1512 1947 1397 1042 716 599 575 416 304 84 46 185 178 314 208 0 9 69 12 1 3 0 0 0 2 0 1 4
2337 2573 2453 1709 1563 1315 1473 1569 1129 732 812 644 602 502 327 225 313 286 240 182 174 188 103 106 123 31 17 20 12 2 1 3 0 0 0 0 0 0
1541 1674 1043 759 414 510 811 1050 587 787 422 207 69 151 45 29 234 210 426 110 6 6 43 10 13 43 16 10 0 8 0 3 4 0 0 0 0 0

GFSNE_con_sbcape_060.txt.gz
CAPE
3070 3469 3102 1999 1466 1142 1480 1513 1812 1357 1462 2241 1951 2038 1479 1708 1919 1096 1155 601 16 0 0 0 0 0 0 0 0 0 16 40 78 102 151 242 132 77
2911 3004 3198 2189 2121 2241 1766 1973 1950 1635 1409 1396 1950 2171 1723 1131 1749 2037 1900 1358 551 65 0 0 0 0 0 0 0 0 0 0 0 0 0 0 0 7
3463 3570 3235 3060 3103 2994 2757 1960 1818 2187 1759 1583 2207 1840 2884 2909 2343 2276 2524 2128 1801 930 81 0 0 0 0 0 0 0 0 0 0 0 0 0 0 1
3465 3228 3516 3302 3996 3608 3090 3100 3315 3556 2733 2294 2247 1777 1766 1937 2812 3230 2965 1936 1594 1748 1265 38 0 0 0 0 0 0 0 0 0 0 0 0 0 0
3277 3414 3237 3513 3689 3664 3726 2929 2418 2672 2416 2319 2163 2843 2847 2705 2289 2853 3321 2828 2462 2131 1862 801 82 0 0 0 0 0 0 0 0 0 0 0 0 0
3297 2949 3414 3592 3564 3932 3558 3471 3438 3442 3009 3009 2449 2251 2411 2577 3249 2806 2457 2478 2070 2655 2405 1889 1688 695 1 0 0 0 0 0 0 0 0 0 0 0
2903 3206 3151 3281 2944 3429 3376 3658 3649 3620 3324 3171 2954 2985 2472 2384 2492 2509 2859 2946 2734 2815 2660 3324 3548 3336 3362 2142 0 0 0 0 0 0 0 0 0 0
3020 2966 3480 2229 2069 1985 1679 1967 2465 3312 3154 3415 3349 3061 2766 2802 2936 2588 2704 2790 2625 2772 4110 3284 3352 3570 3471 3403 3244 1949 349 0 0 0 0 0 0 0
3081 3004 3043 2476 2378 2986 2003 1007 1045 1271 1199 2278 2554 2610 2568 2499 2731 3242 3165 3221 3251 3070 3135 3504 3468 3632 3526 3582 1480 1595 1456 318 0 0 0 0 0 0
2654 2885 3159 2883 2698 3179 3128 3134 2705 2538 2170 1387 1542 2182 2517 2833 3297 3367 3387 3406 2673 2921 3616 3456 3272 3415 3512 2564 2013 1877 1612 662 161 0 0 0 0 0
2080 2596 3255 3106 2706 2409 2161 2592 2907 3229 3102 2785 3027 3058 2533 2303 2358 2358 2400 1714 2333 3313 3671 3271 3333 3175 2478 1935 2166 1521 857 952 591 0 0 0 0 0
2207 2449 1984 1777 2052 1942 2026 2899 2806 2755 2867 3028 3109 2750 1136 828 726 19 1453 2646 3558 3387 3792 2985 2813 2248 2217 2294 847 1036 980 237 204 336 0 0 0 0
1954 2136 2369 2173 1603 1173 978 2479 2766 2860 3061 3170 3056 2574 2503 3421 3775 4077 3916 3732 3733 3478 3589 3389 2554 2460 1823 935 1062 798 9 2 0 1 0 5 0 0
2303 2281 2077 1922 1438 937 53 383 1404 1220 2028 2181 2200 2410 2886 3169 4064 4448 4342 3516 3483 3730 3659 4023 3407 1971 1108 586 359 100 0 0 0 2 9 2 0 0
2465 2091 834 897 0 0 0 7 49 661 1517 2086 2548 3007 3325 4180 3893 3354 2726 3013 3660 3631 3832 3227 1971 1324 661 387 74 0 0 0 1 6 3 2 1 0
1242 1918 1157 1573 1373 1806 1299 5 585 2163 2780 3142 3254 3466 4190 3713 3179 2727 3280 3564 1584 1428 1550 1984 1160 929 432 89 0 0 1 6 3 4 3 2 2 2
1751 2219 2490 2412 2271 2622 3304 3744 2634 2844 3123 3393 3600 4090 3671 3160 2905 3194 3512 1943 1520 1192 1001 1494 538 0 0 0 0 0 2 3 2 2 2 2 4 2
1653 2637 2723 2801 2819 2665 2795 3279 3866 3763 4057 4237 4227 3609 3092 2825 2804 2975 1680 1131 1229 985 974 1352 817 308 0 0 0 0 1 2 2 2 0 2 5 5
2638 2493 2870 3365 3340 3685 3882 4392 4610 4571 3846 3518 3190 2851 2885 3060 1335 1443 1297 1069 803 776 1386 835 820 458 200 17 0 0 0 4 1 2 3 4 4 5
2910 3630 3755 3758 4531 4331 4207 4261 4298 3704 3272 3143 3050 2979 2633 2263 1691 1468 1246 947 766 993 527 235 683 442 52 0 7 0 0 1 0 2 2 2 1 0
3167 3306 3820 4620 4601 4692 4276 3952 3341 2841 2654 2373 2322 1953 1385 996 1214 996 695 174 148 397 455 385 97 4 42 39 1 0 0 0 0 1 1 0 0 0
4345 4245 3949 3276 3089 2544 2213 2267 1898 645 895 702 578 538 323 475 351 480 519 459 332 200 153 149 262 49 2 0 9 0 0 0 0 0 0 0 0 0
2093 1369 798 648 541 841 904 963 898 963 977 216 213 129 257 134 213 246 200 295 357 93 29 11 181 146 19 2 0 0 0 0 0 0 0 0 0 0

GFSNE_con_sbcape_063.txt.gz
CAPE
1588 1512 1765 1055 718 667 82 218 290 301 300 827 1084 796 451 461 597 919 379 285 4 0 0 0 0 0 0 0 0 0 3 5 27 36 35 130 356 718
1065 1765 1349 1204 831 1590 808 555 640 284 346 390 450 813 1252 958 953 971 482 492 559 88 0 0 0 0 0 0 0 0 0 0 0 0 0 0 0 137
1374 1650 1597 1498 1076 1495 2362 1815 952 729 639 417 928 930 961 965 776 999 812 970 841 793 333 18 0 0 0 0 0 0 0 0 0 0 0 0 0 2
1670 1795 2028 1974 1731 1611 1991 1857 1811 1845 1506 983 726 720 937 1158 1105 1113 1489 1979 1591 1405 1263 685 38 0 0 0 0 0 0 0 0 0 0 0 0 0
1883 2169 1834 1911 2161 2514 2336 1979 1772 1544 1918 1547 1531 1556 2022 1850 1694 1394 1687 2007 2149 2090 1820 1600 1007 210 0 0 0 0 0 0 0 0 0 0 0 0
2230 2032 2094 2108 1974 2093 2345 2400 2244 2267 2086 2036 1998 1802 1704 1949 1898 2051 1846 1486 1978 2197 1919 1936 2013 2812 2754 1823 472 0 0 0 0 0 0 0 0 0
1769 1984 2072 2099 2472 2546 2639 2632 2683 2588 2551 2542 2436 2354 2223 1918 2038 2131 1986 1590 1664 1878 1872 1920 2857 2692 2950 2934 2625 1202 564 70 0 0 0 0 0 0
2127 2035 2174 2211 2128 2191 2012 2445 2816 2750 2846 2798 2482 2424 2114 1915 1904 1853 1706 2030 2294 2015 2842 2639 2383 3051 3093 2975 2177 1162 122 0 0 0 0 0 0 0
2181 2112 2118 2214 2141 2051 1876 1218 687 504 973 1804 1797 1762 1825 1875 1851 1861 1965 2313 2478 2468 2490 2414 2826 2825 2671 2989 2179 1084 328 0 0 0 0 0 0 0
2153 2145 2109 2058 1892 1726 1833 2006 1769 1151 814 482 614 1401 1643 1863 1952 2067 2156 2452 2662 2415 1656 2806 3029 2654 2718 2081 1338 376 0 0 0 0 0 0 0 0
1533 1665 2040 2180 2116 2161 1564 2010 2418 2637 2750 1984 1811 1538 1414 1365 1400 1601 2140 2337 2276 1709 2694 3100 2624 2524 2028 1477 512 193 0 0 0 0 0 1 1 0
1191 1345 1788 1990 1932 1872 1407 1615 1441 1362 1471 1723 1604 1034 557 626 789 204 1630 1673 1452 2878 2851 2783 2382 1831 1866 1191 487 3 0 0 0 0 0 0 1 1
965 1121 1273 1349 933 653 588 1326 1925 2161 2038 2077 2248 2488 2189 1820 1913 1934 411 1245 2388 2960 2918 2749 2257 2041 1568 807 176 0 0 0 0 0 2 0 0 0
1216 1156 1085 1347 1314 987 34 5 499 362 1066 1858 1819 1657 1584 1677 1997 2579 3278 3046 2895 3137 2938 2693 3009 1474 511 139 56 0 0 0 0 1 4 2 0 0
1661 1440 1470 1300 675 7 0 9 0 0 410 817 1156 1330 1665 2113 2766 2887 2500 2327 2768 2859 2903 2845 1637 403 89 23 0 0 0 0 0 2 1 4 2 2
1105 765 257 322 299 612 508 0 0 19 341 694 972 1444 2070 2871 2854 2445 2463 2648 1955 497 517 461 152 28 0 0 0 0 0 0 0 0 2 2 1 1
632 1115 895 814 1323 1245 1379 1349 17 347 921 1625 2209 2615 2956 2854 2535 2333 2567 2600 863 427 228 85 0 0 0 0 0 0 0 0 0 0 0 1 2 2
449 1419 1348 1486 1589 1620 1281 1866 1886 1207 1568 2059 2452 2721 2878 2576 2448 2290 2087 401 359 288 144 255 2 0 0 0 0 0 0 0 0 0 1 0 1 2
1434 1511 1711 1646 1716 1716 1626 1401 1623 2654 2623 2886 3138 2957 2757 2700 2447 1741 491 330 157 98 262 58 24 15 0 0 0 0 0 0 0 0 1 1 2 2
1299 1322 1683 1890 1981 1969 2128 2378 2892 2811 2838 2777 2620 2491 2340 2322 1942 1013 504 227 115 128 19 0 43 3 0 0 0 0 0 0 0 0 0 0 1 0
1438 1763 1560 1776 1990 2697 2467 2757 2829 2591 2558 2379 2276 2090 1898 1358 495 302 147 45 17 0 14 31 8 0 0 0 0 0 0 0 0 0 0 0 0 0
1567 1709 1466 2225 2374 2285 1853 1535 1318 1255 1304 930 463 238 157 100 61 54 75 37 3 1 0 0 0 0 0 0 0 0 0 0 0 0 0 0 0 0
814 318 346 0 4 169 213 332 509 289 262 134 71 20 15 6 0 0 0 0 0 0 0 0 0 0 0 0 0 0 0 0 0 0 0 0 0 0

GFSNE_con_sbcape_069.txt.gz
CAPE
847 628 529 502 53 1 5 0 0 0 0 0 177 87 339 70 11 49 77 217 315 270 75 3 0 0 0 0 0 9 30 38 38 57 95 211 299 244
795 935 557 361 192 31 559 0 0 0 58 0 0 0 344 580 343 496 621 571 627 505 345 181 29 0 0 0 0 0 0 0 0 0 0 0 22 124
478 488 552 514 602 283 473 848 469 9 202 154 0 325 412 405 926 765 873 1029 979 1369 1437 1036 650 211 18 0 0 0 0 0 0 0 0 0 0 0
862 476 573 770 963 734 572 872 844 424 424 736 140 500 729 1018 1063 1315 1351 1213 1223 1396 1232 966 1020 970 815 674 49 0 0 0 0 0 0 0 1 1
978 845 712 755 1066 1055 818 901 1128 1074 681 726 1436 741 984 905 1270 1286 1304 1388 1042 1164 1155 1242 1346 1390 1522 421 0 0 0 0 0 0 0 0 0 0
881 978 1088 1065 1004 1029 1073 1282 1337 1360 1277 1171 1025 951 935 1222 1063 1488 1824 1115 1056 1075 1150 1287 1387 1971 1947 324 0 0 0 0 0 0 0 0 0 0
919 926 1044 1147 1281 1270 1188 1062 1079 1169 1235 1325 1368 1306 1448 1623 1890 1270 1210 1048 1092 939 1248 1607 1778 1992 1694 59 0 0 0 0 0 0 0 0 0 0
1082 923 994 1293 1137 1135 957 983 1504 1541 1537 1471 1647 1746 1716 1585 1226 1095 867 989 1546 826 1535 1904 2034 1928 1730 0 0 0 0 0 0 0 0 0 0 0
983 975 911 1201 1097 1153 1062 463 262 424 1085 1687 1763 1680 1723 1478 1043 897 861 930 1078 1339 1740 2219 1351 1689 1004 0 0 0 0 0 0 0 0 0 0 0
995 1021 993 1057 1110 1193 1242 1245 1042 839 430 203 662 1532 1442 1307 850 1087 1045 1053 1122 1469 1793 2304 1388 2275 120 0 0 0 0 0 0 0 0 0 0 1
832 924 1114 1238 1300 1176 1158 1211 1160 1160 1125 851 448 506 415 495 75 570 860 1040 1354 1605 1056 1478 1934 2035 935 6 0 0 0 0 0 0 0 0 1 0
1017 836 675 896 1167 995 555 1157 1126 1299 1242 1081 787 310 47 17 7 9 763 1257 1354 1294 1391 2015 1972 1386 1524 160 0 0 0 0 0 0 0 0 0 0
930 888 857 645 167 157 30 993 1141 1222 1161 782 682 543 596 761 839 246 134 783 1042 1082 1179 2346 2063 1202 1236 699 0 0 0 0 0 0 0 0 0 0
935 868 802 759 436 38 0 1 354 116 482 604 658 893 943 1046 1152 1149 947 426 670 1109 1585 1696 2392 1414 665 0 0 0 0 0 0 0 0 0 0 0
1085 1063 1051 771 387 0 0 0 0 0 112 75 472 591 510 653 774 730 746 905 1553 1460 1552 1816 1725 541 45 0 0 0 0 0 0 0 0 1 1 1
167 596 730 429 1 6 0 0 0 0 3 50 134 214 279 309 459 547 1027 1464 2106 1234 0 0 239 0 0 0 0 0 0 0 0 0 0 1 0 2
273 390 875 368 806 296 24 25 0 0 0 2 51 117 102 176 387 712 1318 1875 2187 587 108 0 0 0 0 0 0 0 0 0 0 0 0 0 0 3
1 797 987 1091 1086 1061 1152 609 193 8 0 0 0 21 79 215 516 981 1568 1921 1982 1030 74 0 0 0 0 0 0 0 0 0 0 0 0 0 0 1
916 971 1111 1304 1165 1164 997 1062 846 544 310 82 147 272 448 606 829 1398 1630 1282 876 316 41 0 0 0 0 0 0 0 0 0 0 0 0 0 0 0
818 1174 1272 1121 1264 1210 1097 1026 1129 1076 812 853 566 636 777 1051 1388 1566 1445 707 157 10 1 0 0 0 0 0 0 0 0 0 0 0 0 0 0 0
95 776 1059 1331 1227 1115 822 907 1012 951 861 988 1001 994 767 799 1190 1248 1090 261 21 0 11 0 0 0 0 0 0 0 0 0 0 0 0 0 0 0
268 230 715 979 798 840 473 262 353 225 5 0 0 0 0 0 0 14 201 113 0 0 1 0 0 0 0 0 0 0 0 0 0 0 0 0 0 0
95 183 361 314 55 2 0 0 0 0 0 0 0 0 0 0 0 0 0 8 0 0 0 0 0 0 0 0 0 0 0 0 0 0 0 0 0 0

GFSNE_con_sbcape_072.txt.gz
CAPE
1049 1023 813 990 347 162 359 0 232 531 477 493 793 512 868 1101 849 1036 1057 758 428 537 736 629 212 0 0 0 0 0 12 20 19 20 49 150 324 637
943 1060 981 730 670 255 788 219 55 178 688 128 485 286 836 1103 1193 1705 1486 765 1042 1253 1075 564 182 244 291 8 0 0 0 0 0 0 0 0 19 123
882 902 986 743 821 644 608 1094 828 234 962 1150 152 823 1168 1687 2185 1879 1994 2126 2137 1438 976 612 522 801 178 217 37 0 0 0 0 0 0 0 0 2
1048 967 945 797 1051 1073 926 1135 1213 941 1048 1392 1110 1259 1655 1784 1847 2247 2262 2183 2029 1481 979 926 1029 1031 300 7 0 0 0 0 0 0 0 0 0 0
1023 1063 1176 998 1222 1322 1382 1328 1280 1449 1231 1297 1774 1501 1601 1559 2115 2290 2381 2498 1663 1316 1413 1222 1356 1193 125 0 0 0 0 0 0 0 0 0 2 2
1130 1214 1335 1258 1379 1472 1341 1549 1597 1748 1784 1694 1660 1642 1630 1910 1789 1957 2511 2394 1775 1742 1624 1389 1454 1419 0 0 0 0 0 0 0 0 0 0 1 0
1263 1210 1201 1179 975 1250 1558 1844 1613 1572 1605 1756 2048 1854 2161 2218 2440 2211 1882 1690 1911 1640 2037 2424 2442 2627 1123 0 0 0 0 0 0 0 0 0 0 0
1422 1368 1415 961 903 683 567 699 1354 1982 2102 2049 2347 2086 2387 2025 2138 1896 1657 1822 1965 1663 2017 2497 2569 2499 1022 0 0 0 0 0 0 0 0 0 0 0
1448 1500 1281 1218 959 1414 978 400 29 32 679 2175 2223 2308 2306 2416 2101 2069 1688 1311 1624 1813 1927 2269 2450 2268 84 0 0 0 0 0 0 0 0 0 0 0
1250 1220 1273 1345 1232 1273 1391 1488 1528 1416 918 507 929 1750 2206 2241 2054 1977 1644 1346 1507 1770 1827 2359 2420 2286 18 0 0 0 0 0 0 0 0 0 0 1
1156 1216 1213 1211 970 500 1336 1545 1677 1699 1295 795 656 773 610 529 395 892 1215 1310 1805 1847 1979 2193 2200 2648 912 68 0 0 0 0 0 0 0 0 1 0
877 1009 516 931 909 392 790 1473 1531 1606 1628 1656 1166 144 48 71 0 111 1030 1453 1974 1890 2124 2141 3017 2240 2530 909 3 0 0 0 0 0 0 0 0 3
449 575 1026 308 76 9 64 1250 1246 1381 1320 1249 1582 1454 1313 1128 1013 257 475 1102 1789 2011 2118 2468 2676 2012 1663 1934 396 0 0 0 0 0 0 0 0 0
562 671 713 470 172 0 0 3 275 87 717 1345 1405 1252 1267 1195 1458 1559 1474 933 1404 2204 2258 2227 1897 2247 2087 928 873 6 0 0 0 0 1 0 0 0
644 502 386 428 223 0 0 0 0 0 177 584 856 1071 1170 1290 1412 1147 1195 1398 1327 1203 1060 1089 1425 1954 1328 697 329 13 0 0 0 0 1 3 6 9
1 230 367 206 18 116 0 0 0 7 92 275 597 757 820 575 677 856 955 1551 1393 1813 48 0 38 997 273 93 10 3 0 0 0 3 2 4 4 4
0 245 727 818 786 588 273 338 28 3 22 112 285 408 454 531 585 810 909 1242 1644 2030 1077 0 0 0 0 1 0 0 0 0 0 1 2 3 6 8
1 512 634 803 1016 912 789 950 696 158 309 368 341 488 532 528 572 652 844 1386 1842 2026 1660 0 0 0 0 0 0 0 0 0 1 3 4 3 3 6
796 687 863 1117 1046 834 898 906 1336 950 673 509 447 471 372 456 269 806 1286 1324 1791 2073 1486 0 0 0 0 140 0 0 0 1 3 3 3 1 5 7
1010 1308 1392 1238 1272 1205 1044 1004 1151 1497 1073 756 435 427 467 623 808 1151 1429 1663 1607 1412 439 9 0 0 14 137 56 0 0 0 0 1 4 3 3 0
159 1112 1536 1773 1502 1110 1196 1368 1425 1462 1499 1261 1249 1195 1111 958 892 1030 1327 1201 780 351 301 75 63 6 0 0 0 0 0 0 0 0 1 4 4 5
970 588 953 1279 1279 1241 1081 1114 1364 1264 1259 1383 1488 1321 666 594 739 686 559 207 52 156 171 37 0 0 0 0 0 0 0 0 0 0 0 0 1 1
1270 976 716 757 971 1079 1044 1037 1160 1411 1184 697 94 0 5 0 0 0 0 0 0 0 4 2 0 1 0 0 0 0 0 0 0 1 0 0 0 0

GFSNE_con_sbcape_075.txt.gz
CAPE
2176 2189 2086 1866 1717 1404 1515 1539 1297 1016 972 1173 1133 1660 2004 2193 2220 2683 2687 2010 1378 1165 927 607 186 127 157 109 65 40 44 57 63 73 94 117 201 354
1897 2322 2322 1764 1806 1585 1337 1449 1532 1677 1255 1494 1617 1983 2413 2551 2154 2849 2793 2324 2290 1980 1312 380 139 198 423 332 14 0 0 0 0 0 0 0 0 6
2202 2305 2313 2471 1711 1643 1555 1699 1904 1731 1503 1192 1975 2193 2789 3099 2953 3144 2520 2447 2284 1852 1300 583 435 296 380 1 0 0 0 0 0 0 0 0 0 1
2054 2266 2136 1915 2356 2361 2158 2333 2064 2343 2178 2246 2463 2306 2692 2888 3187 3363 2835 2190 2964 1838 1523 1339 1075 419 36 0 0 0 0 0 0 0 0 0 4 6
1982 2112 2141 2305 2488 2083 2454 2295 2180 2460 2590 2613 2474 2412 2538 2590 2768 2803 2916 3023 2394 1729 1755 1670 1788 682 0 0 0 0 0 0 0 0 0 2 3 3
2291 2167 2152 2227 2365 2644 2668 2733 2581 2644 2501 2713 2225 2155 2349 2467 2657 2120 2088 2128 2549 2423 2221 1988 1783 247 0 0 0 0 0 0 0 0 0 0 0 0
2348 2334 2225 2010 1748 1887 2005 2356 2541 2544 2305 2349 2206 2048 1953 1850 2052 1951 1914 2188 2643 2618 2612 1881 2131 3024 1250 0 0 0 0 0 0 0 0 0 0 0
2498 2496 2426 1483 1191 821 646 917 1451 2533 2438 2058 1583 1819 2778 2447 1766 1973 1945 2114 1883 1768 2634 2044 2251 3121 3252 1313 0 0 0 0 0 0 0 0 0 0
2521 2544 2393 1860 1805 2327 794 65 86 62 528 2399 2454 2350 2727 2372 2588 2790 2452 2415 2359 1947 2572 2180 2262 3043 3012 112 0 0 0 0 0 0 0 0 0 0
2414 2356 2566 2639 2397 2229 2352 2256 2275 2255 1802 1199 1655 2149 2439 2567 2882 2956 2788 2715 2388 2128 2716 2418 2186 2995 2990 1008 0 0 0 0 0 0 0 0 0 0
2382 2290 2570 2505 2230 1383 1972 2161 2283 2265 1497 1326 1166 1276 1413 1051 1130 1901 2012 1886 1555 1327 1719 2313 2363 3038 3368 2847 192 0 0 0 0 0 0 0 1 0
1582 2053 1231 1494 1595 751 1424 1893 2236 2098 1707 1459 1650 790 141 772 0 710 1896 1933 1602 1434 1573 2229 1908 2599 2731 2790 1616 111 10 0 0 0 0 0 0 0
1012 1007 940 293 195 7 62 2065 2216 1989 1300 1657 1499 1283 1532 1961 2112 1270 1652 1912 1711 1579 1451 2514 2073 2463 2966 3016 2469 1170 214 0 0 0 0 0 0 0
1331 1112 1194 568 37 0 0 304 876 823 1295 1154 961 1030 1124 1266 1450 1740 2433 2174 1998 2175 2183 2602 2343 2271 2811 3083 2770 1013 117 0 0 0 0 0 0 0
995 1070 813 497 75 0 0 0 0 458 915 1032 1153 1211 1158 1116 1779 1927 2134 2300 2320 2253 2037 2426 2675 2582 2736 2950 2742 1223 270 57 0 0 0 0 0 0
12 463 566 416 266 563 442 21 82 838 973 1120 1266 1284 1300 1335 1470 1717 1736 1686 1723 1939 2196 2225 2229 2187 1934 2305 2213 1291 613 185 0 0 0 0 0 0
226 549 902 1014 1182 1223 1120 1339 1331 1062 1023 1221 1492 1499 1474 1481 1573 1659 1736 1733 1800 1768 1812 1488 512 1087 1842 1598 1027 792 674 82 0 0 0 0 0 0
99 1062 1378 1471 1434 1274 1201 1273 1235 1095 1510 1447 1456 1418 1497 1501 1545 1663 1769 1958 1881 1815 1905 1963 665 415 171 101 167 887 251 96 0 1 0 0 0 0
707 1405 1297 1142 1122 1103 1386 1518 1458 1355 1531 1767 1445 1414 1414 1482 1605 1718 1856 2065 2054 1952 1991 2025 1251 1142 1660 1709 500 0 264 53 0 0 0 0 0 1
957 1218 1456 1279 1491 1683 1673 1831 1977 1520 1435 1774 1737 1462 1498 1553 1640 1816 1906 2093 2133 2074 2193 2450 1589 878 1942 2345 1516 237 0 65 0 0 0 0 0 0
288 1101 1582 1770 1661 1707 2190 2227 2004 1757 1206 1496 1877 2003 1842 1882 2000 2124 2388 1618 1763 2413 2128 1778 1649 694 1556 100 156 51 0 0 0 0 0 0 0 1
2050 1480 1823 2195 2166 2016 2100 2105 2439 2275 1500 1321 1490 1509 1615 1740 1922 1936 1873 1774 1222 1318 1125 1321 719 265 238 219 280 466 6 0 0 0 0 0 0 0
2446 2348 2413 2216 2169 2147 2127 1867 1827 1938 1707 1495 1658 1851 1577 1619 1609 1651 1121 737 574 427 436 356 40 15 7 38 96 421 1 0 0 0 0 0 0 0

GFSNE_con_sbcape_078.txt.gz
CAPE
1763 1622 1634 1205 1534 1554 1561 1454 1432 1099 1015 1883 1214 1721 1912 1966 2083 2554 2648 2026 2350 1934 1219 441 364 349 382 293 184 60 35 4 0 0 0 0 0 11
1652 1793 2199 1270 1543 1610 1476 1446 1491 1445 1241 1081 1481 1858 2746 2712 2181 2796 2648 1963 2235 1830 1235 677 627 336 289 23 0 0 0 0 0 0 0 0 0 1
2129 2180 2439 2270 1784 1230 1389 1371 1474 1587 1529 1071 1360 1590 2753 3094 3035 3228 2689 2374 1444 1550 1536 1140 1038 560 124 0 0 0 0 0 0 0 0 0 0 0
2106 2298 2277 1799 2397 2246 1714 2038 2256 1851 1824 2123 2353 1695 2294 2674 2854 3275 2451 2064 2338 1347 1409 1461 1231 1058 0 0 0 0 0 0 0 0 0 0 0 3
2030 2336 2164 2168 2358 1707 2038 1706 1784 2010 2003 1794 1721 1476 1841 2318 2645 3142 2566 2548 1621 1216 996 1491 949 928 0 0 0 0 0 0 0 0 0 0 0 1
2556 2584 2461 2028 2217 2657 2690 2752 2670 2512 2451 1920 1707 1654 1711 2015 2366 1785 1298 1197 1468 1626 1502 1322 812 0 0 0 0 0 0 0 0 0 0 1 2 3
2645 2881 2699 2276 1562 1750 1908 3297 3140 2591 1960 1619 1594 1625 1504 1441 2242 1277 1240 1176 1682 1371 1720 1625 1162 1329 27 0 0 0 0 0 0 0 0 0 0 0
2846 2710 2816 1939 1758 1525 1381 1255 1139 2485 2457 1458 905 1103 2587 2097 1365 1172 1208 1170 1152 928 1605 1100 1168 1210 2570 3178 0 0 0 0 0 0 0 0 0 0
2591 2520 2251 1765 2227 2503 951 638 263 114 311 2535 2549 2507 2785 2380 2927 2513 3255 2171 2058 1452 1704 1432 1430 1413 2306 0 0 0 0 0 0 0 0 0 0 0
2546 2458 2841 2943 2154 1970 2364 2340 2574 2493 2101 1630 1786 2127 2629 2476 2898 3027 3078 3046 2594 1928 2483 1316 1346 1213 2238 1133 0 0 0 0 0 0 0 0 0 0
2210 2732 2994 3265 2457 1758 2326 2825 2685 2561 1161 1820 1676 1520 1191 1078 1107 1730 1475 1260 812 578 716 671 854 1163 1727 2211 0 0 0 0 0 0 0 0 0 0
1922 2599 1567 1794 1911 1431 2445 2882 2986 2624 1323 1241 1589 966 319 1202 114 1174 1830 1580 968 648 762 986 745 767 1317 1922 2828 0 0 0 0 0 0 0 0 0
1147 1217 1270 488 471 221 199 2911 2400 2065 1159 977 843 854 920 996 1703 1963 2196 1950 1165 643 390 1241 1039 1020 1280 1721 2522 3608 2094 16 20 0 0 0 0 0
1518 1310 1623 1055 0 0 0 310 744 348 644 138 88 139 259 369 325 983 3477 3207 2328 3307 2999 3602 1786 993 1306 1574 1751 2707 1796 843 212 68 0 0 0 0
1356 1310 1144 142 7 0 0 2 0 503 686 657 490 427 337 314 1420 1880 3273 3945 3812 3361 2777 3001 2775 2847 2256 2046 1886 2209 2528 1621 447 73 0 0 0 0
30 126 565 709 717 901 843 101 123 761 844 927 754 492 584 563 638 815 940 980 1363 1662 3417 3281 3833 3519 2568 2237 2233 2530 2442 1843 778 218 0 0 0 0
622 1012 1192 1215 1376 1602 1673 1577 1553 1243 1047 1120 1144 1122 1113 1100 1081 1034 892 902 994 1097 1185 1736 3379 3303 2374 2970 2508 2810 2319 2048 1403 623 39 19 0 0
673 1356 1737 1844 1904 1948 2036 2030 1928 1478 1696 1470 1340 1260 1186 1184 1168 1086 994 940 1123 1316 1417 1360 1875 2161 1474 1991 2039 2759 2246 1855 1534 385 58 6 0 0
1122 1680 1903 1949 2197 2345 2366 2130 2111 2096 2692 2156 2109 1836 1491 1288 1118 1053 963 1231 1427 1493 1615 1790 1720 2376 1947 1501 1245 417 2316 1902 1124 368 91 21 0 0
868 1569 1881 2149 2199 1911 1737 1950 2022 2044 2376 2603 2126 2026 2047 1575 1301 1247 1259 1593 1547 1854 1953 2114 2013 2203 2597 1740 1039 1577 0 1731 1051 477 135 3 0 0
567 1221 1786 1897 2406 2487 2617 2423 2907 2782 2961 2876 2450 2418 2485 2010 1659 1514 1437 1088 1381 2098 2386 2682 2471 1759 2853 2497 1678 2025 415 0 7 394 241 0 0 0
1588 1634 1686 1932 2501 2748 2787 2746 3001 2690 2716 2644 2791 2593 2497 2491 2637 2242 2220 2188 2804 2639 2514 2977 2418 2110 1346 1635 1726 2062 774 0 0 0 0 0 0 0
963 1742 2334 2617 2563 2863 3403 3448 2752 2934 2597 2493 2656 2661 2546 1995 1926 1842 2035 2351 2160 2198 2101 2223 1212 885 615 619 867 860 389 0 2 1 0 0 0 0

GFSNE_con_sbcape_084.txt.gz
CAPE
3014 2984 3147 2331 1859 2057 1741 1857 2121 2296 2246 2596 2174 2997 3088 2945 2539 2850 3493 2911 1635 1206 1850 1467 745 501 606 145 39 0 0 0 0 0 0 0 0 0
2479 2892 3095 2200 2208 1747 1020 2242 2584 2338 2132 2134 2041 3528 3535 3044 2811 3303 3638 2998 2834 1768 1669 1334 773 510 481 50 0 0 0 0 0 0 0 0 0 1
2693 2629 2765 3302 2676 2471 2267 2379 2006 2382 2415 2266 2710 2943 2820 3454 3288 3885 3863 3629 2886 1458 1595 1145 712 545 179 0 0 0 0 0 0 0 0 0 1 2
2685 2178 2398 2380 3340 3182 2723 2600 2839 2847 2697 2567 2465 2091 2176 2086 4541 4099 4156 2903 2591 1690 1233 706 749 478 90 0 0 0 0 0 0 0 0 0 2 0
2693 2660 2828 3115 3178 2472 3523 3000 2438 2539 2542 2609 2083 2703 2166 1868 2296 3292 4130 3863 3628 878 756 518 511 174 4 0 0 0 0 0 0 0 0 0 0 0
3001 2990 3222 3148 3150 3197 2980 2994 2863 2898 2430 2469 1884 1620 1587 1829 2850 3040 2758 1764 1655 1649 985 848 409 85 0 0 0 0 0 0 0 0 0 0 0 0
2868 2903 3123 3087 2522 2981 2617 2740 2672 2716 2579 2189 1809 1791 1845 2736 2190 2064 1617 2284 1510 1587 1273 1350 853 92 0 0 0 0 0 0 0 0 0 0 0 0
2534 3019 3229 2577 1852 1184 1171 1149 1090 2826 2962 3256 2588 1718 1813 2229 2496 2682 2360 1647 1455 2071 1781 1321 966 615 836 0 0 0 0 0 0 0 0 0 0 0
2971 2950 2935 1846 1532 2672 1104 964 745 253 316 1099 1487 2001 2391 2387 3004 3240 2972 2814 2565 1861 1924 1517 1683 1766 1641 312 76 0 0 0 0 0 0 0 0 0
2218 2712 2897 2334 2468 2651 3045 2912 1959 1828 1391 463 551 754 910 1236 1965 2036 2020 2104 2652 2849 2637 2295 2167 2041 1927 53 0 0 0 0 0 0 0 0 0 0
1477 1969 2129 2140 2812 2348 1577 2302 2787 3088 2478 2087 1877 1244 773 599 578 1164 1325 1065 769 507 726 570 366 812 1265 166 0 0 0 0 0 0 0 0 0 0
1788 1709 1049 1072 1664 1205 1072 2430 2005 1742 1832 2067 1406 269 58 201 78 204 1068 1330 1078 869 568 607 704 538 680 1573 4 0 0 0 0 0 0 0 0 0
1913 1786 1792 1280 641 210 36 1114 1456 1865 1894 1816 1964 1788 1496 1619 1600 825 950 1209 1055 877 773 684 467 1930 1724 1037 1254 2 0 0 0 0 0 0 0 0
1769 1923 1889 0 0 0 0 0 50 171 1323 1572 1685 1518 1243 928 705 544 1508 1372 1125 891 918 1555 2064 1849 1648 1318 1223 868 49 70 0 0 0 0 0 0
8 37 0 46 34 0 8 0 0 0 252 648 822 959 1088 1027 988 629 265 1935 1829 1805 1710 1832 1709 2055 2023 1779 1542 1539 1007 575 29 219 0 0 0 0
0 0 0 0 2 135 61 512 0 26 312 561 675 831 994 1046 1026 922 496 126 249 2209 2663 2482 2833 2472 2136 2148 1982 1833 1617 1620 2083 1177 875 130 3 0
2 2 1 397 1603 1897 1831 1464 1557 658 528 774 979 1133 1167 1093 1041 795 545 378 623 581 488 1988 2955 2780 2437 2457 2405 2186 1954 2020 1939 1407 799 521 109 0
3 1 0 12 434 466 1227 1428 1638 1457 1613 1383 1134 1102 1013 1011 1013 1118 1362 813 619 690 636 666 1529 2703 2835 2943 2871 2432 2331 2137 1792 1587 790 611 595 72
3 3 3 0 53 349 541 329 261 1236 1480 1850 1741 1771 1361 1108 880 850 845 878 1195 1333 1135 1260 1581 1499 961 1144 1993 2360 2014 1704 1905 1776 771 709 733 196
0 0 3 19 47 569 1222 801 512 868 1049 1434 1417 1672 1571 1598 1505 1567 1500 1186 906 731 805 1775 1210 819 705 822 995 1160 455 1830 1484 1621 1030 276 0 0
0 89 81 147 301 908 1220 1185 1587 1226 83 221 1395 1999 2037 1797 1829 1776 1777 1438 899 1142 1214 975 861 1195 2354 2289 1764 1226 1427 0 96 1444 1379 647 0 0
18 66 178 240 483 765 391 172 268 1104 1274 1282 1209 1302 1743 1812 1988 1770 1680 1680 1451 1401 1322 1554 1887 1930 1854 1404 1237 1108 1064 7 3 0 1 212 237 0
0 0 0 97 340 139 249 439 609 951 983 1106 1185 1246 1551 1405 1581 1693 1678 1653 1737 1661 1442 1385 1250 1311 1248 1424 1123 1124 1373 1473 75 3 4 3 3 0

GFSNE_con_sbcape_087.txt.gz
CAPE
1256 1413 1269 1407 972 1133 1387 327 797 609 758 995 1465 1852 1756 2134 2136 2075 2602 2815 2207 1502 1442 1185 868 613 742 336 56 0 0 0 0 0 0 0 0 0
1717 1226 1418 1529 1253 1459 1563 1427 1148 833 762 1052 1288 2496 2132 1906 2013 1654 2674 2573 2555 2713 2010 1024 976 521 674 211 0 0 0 0 0 0 0 0 1 2
1023 1471 1034 1629 1079 1499 1697 1425 1349 1410 1393 1422 1911 1721 1177 935 1213 1511 2420 2658 2399 1923 1464 1083 999 474 503 126 0 0 0 0 0 0 0 0 1 0
1178 1553 1250 1449 1540 1762 1581 1388 1405 1043 1280 1067 962 1125 1242 1618 1634 1793 2818 2755 2481 2244 1849 742 835 279 336 78 0 0 0 0 0 0 0 0 0 1
1215 1401 1569 1356 1631 1569 1046 1788 1653 1467 1941 1717 1655 1545 1599 945 867 949 1393 2414 1746 1360 616 494 454 165 107 22 0 0 0 0 0 0 0 0 0 1
1473 1885 1605 1032 1277 1533 1424 1254 1457 1582 1542 1414 1318 1120 886 992 1375 1893 814 706 1090 729 471 522 231 33 13 0 0 0 0 0 0 0 0 0 0 0
1747 1685 2030 2204 2197 1961 1685 1410 1461 1453 1480 1675 1583 1420 1415 1414 1100 1460 1360 1248 782 412 1015 839 463 112 1 0 0 0 0 0 0 0 0 0 0 0
1404 1630 1945 2113 2058 1801 1240 1630 1667 1743 1682 1729 1791 1982 1558 1105 1722 1778 1945 1528 1262 1100 1335 1130 928 903 363 0 0 0 0 0 0 0 0 0 0 0
1908 1818 1640 1631 1885 1705 1734 802 128 123 460 591 610 513 775 797 1119 1295 1071 1350 1305 1177 1397 1754 1477 1343 1455 369 0 0 0 0 0 0 0 0 0 0
1170 1811 1886 1806 1640 1521 1764 1914 1386 813 561 81 134 454 256 264 263 467 703 1101 1076 1424 1827 1704 850 1323 830 465 0 0 0 0 0 0 0 0 0 0
742 937 1275 1481 1879 2039 1195 1137 1217 2000 2077 1226 811 424 352 189 106 478 960 1075 855 590 107 240 237 37 24 415 0 0 0 0 0 0 0 0 0 0
1216 962 829 684 638 1058 619 827 904 1056 1230 1025 721 188 23 73 3 0 410 383 485 687 434 288 252 66 272 191 0 0 0 0 0 0 0 0 0 0
1219 1265 1215 58 0 0 0 43 571 440 586 600 1137 1162 1057 867 544 195 155 433 664 720 546 220 91 112 742 712 367 0 0 0 0 0 0 0 0 0
1 18 11 1 2 1 0 0 0 0 0 159 476 734 1067 1131 1001 670 837 523 555 634 529 126 310 251 276 521 750 181 0 0 0 0 0 0 0 0
0 0 0 0 0 0 0 0 0 0 0 0 68 297 421 571 673 629 391 126 617 768 644 570 532 665 617 770 734 697 810 326 0 0 0 0 0 0
0 0 0 0 0 0 0 1 23 167 95 17 12 97 221 337 501 591 650 644 511 340 581 887 778 895 902 992 1219 1180 931 1222 194 0 0 0 0 0
0 0 0 0 0 0 267 1068 975 514 0 20 115 236 329 409 533 638 670 599 415 342 104 267 1580 1477 1631 1528 1135 1378 1317 1131 905 627 160 7 0 0
1 0 0 0 0 0 0 25 296 793 907 778 479 371 504 536 718 767 665 611 473 306 110 49 195 1797 1873 1830 1623 1502 1205 1392 1323 630 503 484 162 0
0 0 0 0 0 0 0 0 89 198 179 228 531 716 897 792 564 575 609 440 521 404 198 180 139 151 299 562 592 943 1601 1398 1331 891 529 309 454 194
0 0 0 0 0 0 0 0 167 419 21 11 218 13 16 38 6 51 512 516 302 350 250 324 602 591 635 463 320 391 378 1729 1086 923 487 7 0 0
0 0 0 1 8 15 19 61 196 491 401 457 223 0 2 0 0 0 53 383 642 588 651 597 504 474 464 496 535 661 693 0 267 899 599 106 0 0
0 0 0 0 0 0 15 19 44 57 91 158 240 204 0 0 0 2 496 656 478 359 541 589 495 657 436 555 729 603 418 0 1 0 0 67 8 57
0 0 0 0 0 1 3 4 5 5 10 15 14 6 140 471 431 294 367 386 492 582 508 553 393 363 587 500 569 516 598 341 6 1 1 0 1 0

GFSNE_con_sbcape_093.txt.gz
CAPE
631 513 561 704 513 653 474 526 334 500 205 434 1210 1367 1053 819 836 1074 927 830 1015 1392 1489 1118 521 557 650 722 527 61 0 0 0 0 0 0 0 1
724 928 633 666 865 783 821 631 464 152 530 170 895 1050 1008 728 869 814 629 654 1400 1681 1044 294 221 428 535 454 708 47 0 0 0 0 0 0 0 0
593 687 683 473 568 361 895 538 678 489 709 693 659 834 743 721 662 513 777 1127 1119 983 605 284 120 231 243 200 420 198 0 0 0 0 0 0 0 0
610 598 604 832 559 438 1001 543 820 605 794 730 581 714 789 646 471 509 861 954 663 728 493 361 290 210 149 86 60 38 0 0 0 0 0 0 0 0
818 784 547 564 661 526 431 559 514 692 695 886 765 464 535 314 648 613 904 665 702 697 382 275 587 288 218 48 0 0 0 0 0 0 0 0 0 0
736 834 801 889 877 690 504 520 487 451 367 477 377 411 469 552 503 612 828 539 628 369 105 227 513 218 245 268 72 0 0 0 0 0 0 0 0 0
680 673 869 986 1121 1006 941 1052 923 762 569 498 539 493 549 491 520 451 641 415 190 51 101 327 204 353 469 279 116 103 19 0 0 0 0 0 0 0
1077 964 758 845 869 902 487 376 815 1127 1084 587 658 698 627 421 327 402 386 234 274 5 345 308 277 371 520 407 351 209 66 0 0 0 0 0 0 0
738 808 845 1014 1020 937 1100 840 423 41 393 865 783 656 541 211 144 161 60 51 91 110 327 611 339 455 233 117 68 43 0 0 0 0 0 0 0 0
182 356 594 762 899 989 944 876 812 756 474 37 70 491 364 288 89 285 191 22 4 53 203 652 219 200 57 6 0 0 0 0 0 0 0 0 0 0
230 267 317 374 256 14 52 462 580 635 767 806 318 176 132 50 36 16 129 224 738 768 194 445 337 45 1 17 0 0 0 0 0 0 0 0 0 0
0 8 1 1 1 1 1 0 0 32 71 26 30 133 11 0 0 0 241 402 543 511 349 306 68 27 88 0 0 1 0 0 0 0 0 0 0 0
0 0 0 0 0 0 0 0 1 0 0 0 0 8 56 192 194 13 0 119 376 461 441 131 100 0 4 61 17 22 0 0 0 0 0 0 0 0
0 0 0 0 0 0 0 0 0 1 1 1 0 2 60 106 175 292 168 3 133 408 596 48 145 136 37 5 106 64 1 0 0 0 0 0 0 0
0 0 0 0 0 0 0 0 0 0 0 1 0 0 6 32 7 49 67 238 160 181 229 263 83 322 233 259 295 205 77 49 0 0 0 0 0 0
0 0 0 0 0 0 0 0 0 0 0 2 3 37 184 208 104 17 15 13 11 173 154 271 314 230 254 280 257 258 139 82 66 0 0 0 0 0
0 0 0 0 0 0 0 0 0 0 0 0 2 5 38 92 99 88 10 24 27 181 280 219 59 49 123 185 180 104 136 124 96 102 0 0 0 0
0 0 0 0 0 0 0 0 0 0 0 1 2 3 2 107 212 247 138 167 176 246 478 587 219 1 4 108 76 128 108 162 259 159 0 125 236 14
0 0 0 0 0 0 0 0 0 0 9 10 23 27 2 7 1 42 156 258 336 194 270 405 167 59 39 1 11 5 429 501 402 195 264 150 443 357
0 0 0 0 0 0 0 0 0 6 16 2 12 11 11 10 10 34 72 15 6 6 0 0 2 4 3 0 0 111 1 523 468 472 313 110 0 0
0 0 0 0 2 9 4 1 0 7 17 4 6 1 1 9 10 9 5 1 14 15 6 0 0 0 0 10 22 52 165 0 216 464 280 139 6 0
0 0 1 1 2 4 5 7 12 11 9 15 18 5 2 1 4 5 4 2 6 18 23 14 4 8 46 55 23 35 120 36 1 1 1 48 15 75
1 2 2 1 1 6 6 1 14 17 31 22 9 11 7 2 0 6 7 6 10 3 8 13 28 62 102 78 43 43 50 63 27 2 0 1 1 1

GFSNE_con_sbcape_096.txt.gz
CAPE
847 755 880 963 909 931 847 877 1170 1216 1280 1220 1831 1925 2794 2194 1680 1725 1462 828 1270 943 311 135 113 500 485 399 699 247 0 0 0 0 0 0 0 0
906 1068 984 959 1169 1122 1109 972 783 830 1263 672 1487 1714 1844 1355 1273 1471 1451 1034 907 487 190 223 218 368 446 311 209 278 0 0 0 0 0 0 0 0
850 944 1080 806 870 716 961 1042 939 719 1167 1421 837 1452 1470 1570 1629 1512 1236 1853 1408 574 424 82 444 196 193 195 41 34 15 0 0 0 0 0 0 0
884 802 696 855 991 774 957 1302 972 1051 1081 1264 969 1085 1268 1272 1159 1208 1366 1290 1324 780 426 89 290 306 167 101 25 0 0 0 0 0 0 0 0 0
508 886 750 743 1035 884 869 862 763 915 932 1136 1212 783 886 741 1140 1300 1303 1414 897 454 290 69 177 290 133 196 182 6 0 0 0 0 0 0 0 0
747 814 884 830 834 1076 945 1006 786 881 867 894 846 720 701 1067 797 856 1121 999 1030 782 222 52 328 216 165 179 106 37 0 0 0 0 0 0 0 0
1086 1005 1001 898 775 814 1432 1655 1217 1239 1208 1085 997 830 1007 1047 1158 954 838 842 939 391 480 977 762 1008 1035 616 350 164 68 0 0 0 0 0 0 0
1562 1469 1277 836 947 754 339 105 503 1589 1670 1172 1563 1390 1551 967 907 855 832 986 1149 515 771 1123 894 1284 1118 975 282 11 0 0 0 0 0 0 0 0
973 1012 967 1046 887 1083 933 626 191 8 165 1575 1468 1560 1388 1322 969 1015 915 552 896 1012 539 1325 1267 1365 910 496 87 4 0 0 0 0 0 0 0 0
224 297 389 462 50 16 334 897 1061 1083 781 226 315 912 1155 1138 777 1030 942 521 380 603 398 983 1204 1149 981 564 120 0 0 0 0 0 0 0 0 0
59 16 13 4 2 0 0 18 96 273 308 220 20 44 26 0 5 96 583 673 883 1089 787 820 1007 781 628 536 449 0 0 0 0 0 0 0 0 0
0 0 1 0 1 2 0 0 0 0 0 0 0 73 101 107 0 0 314 647 831 898 935 760 852 450 826 754 305 531 480 8 0 0 0 0 0 0
0 0 0 0 0 0 0 0 0 0 0 0 0 0 11 187 314 425 42 314 670 789 811 580 691 570 325 551 590 725 540 476 23 0 0 0 0 0
0 0 0 0 0 0 0 0 0 1 0 0 0 0 0 1 200 357 709 277 441 740 921 765 646 689 724 820 856 973 897 602 183 66 14 0 0 0
0 0 0 0 0 0 0 0 0 0 3 2 4 7 7 28 229 432 417 514 684 676 453 680 615 826 740 811 854 962 639 652 704 147 82 0 0 0
0 0 0 0 0 0 0 0 0 0 2 6 4 10 19 18 31 404 315 603 397 480 737 711 988 854 705 741 675 785 782 711 754 556 205 69 0 0
1 0 0 0 0 0 0 0 0 1 2 12 1 2 8 5 8 40 230 163 178 254 477 496 850 848 674 581 380 669 831 841 826 761 476 303 385 59
0 1 0 0 0 0 0 0 1 1 5 5 2 19 35 21 11 14 18 31 52 90 202 293 618 840 731 554 130 608 733 722 758 928 713 485 755 959
0 0 0 0 0 2 18 16 13 5 10 3 41 26 14 4 4 10 10 6 8 9 21 55 247 125 31 13 82 3 321 401 729 1214 1160 961 803 1127
0 0 0 0 0 1 0 0 1 4 14 18 25 23 32 21 18 12 10 13 12 8 9 12 27 31 36 35 26 34 1 51 746 975 1187 1427 1142 1
0 0 0 0 0 0 1 12 21 22 21 40 47 21 6 17 9 7 5 2 0 13 8 1 2 0 16 29 18 4 70 0 55 503 786 1231 1285 745
2 4 3 4 4 4 7 4 14 10 12 22 26 23 21 19 16 5 4 3 3 3 4 4 14 22 21 16 8 12 17 233 183 1 1 42 468 63
2 2 3 4 2 4 10 17 7 11 12 17 19 8 45 34 26 23 16 8 13 2 0 1 10 25 24 29 18 14 20 118 196 154 2 1 1 1

GFSNE_con_sbcape_102.txt.gz
CAPE
1644 1842 1817 1290 1440 1499 1557 1477 1612 1353 1248 2229 1545 1740 1852 1484 1433 1562 1591 1095 1188 1013 662 126 36 80 426 714 749 911 880 575 337 177 41 4 1 0
1521 1789 2040 1288 1519 1346 1399 1319 1347 1309 1199 1017 1092 1682 2165 2091 1370 1611 1441 1261 1695 1472 799 204 114 37 25 68 172 194 239 285 87 4 0 0 0 0
1693 1866 2089 2539 1596 1127 1038 1130 1213 1205 1123 678 901 935 2208 2314 2338 2503 1660 1136 743 702 846 603 57 5 88 28 0 0 0 3 31 0 0 0 0 0
1278 1415 1678 1368 2197 2112 1543 1676 1836 1826 1477 1915 2177 1453 1590 2012 2172 2720 1973 1232 1419 623 528 637 85 7 132 235 68 0 0 0 0 0 0 0 0 0
1163 1261 1282 1376 1667 1422 1907 1665 1131 1530 1954 1688 1386 1060 1313 1497 1815 2342 1934 1807 982 253 200 250 180 253 625 636 537 149 0 0 0 0 0 0 0 0
1506 1300 1401 1419 1607 1832 1621 1901 1806 1947 1696 1512 1158 970 974 1328 1538 1062 776 727 794 687 607 587 666 651 936 761 536 456 113 0 0 0 0 0 0 0
1687 1594 1495 1317 995 1120 1978 2148 1925 1919 1317 1214 1030 947 824 1904 1761 1095 834 782 1318 922 738 1167 915 929 1016 414 585 372 0 0 0 0 0 0 0 0
1666 1811 1552 1089 1195 766 608 378 543 2122 2140 2080 1483 1454 2152 2194 1427 1169 1470 1381 1508 1229 1980 1434 1198 1148 1224 1160 575 414 12 0 0 0 0 0 0 0
1674 1840 1591 624 483 782 791 763 751 387 138 2102 2182 2183 2337 2799 2611 2594 3008 2316 2242 1899 2120 1579 1334 1310 1149 1040 896 589 25 0 0 0 0 0 0 0
427 169 73 0 0 0 335 962 1413 1647 1690 1602 2013 2040 2163 1603 1434 2134 2093 2265 2285 2058 2664 1566 1319 1384 1265 1281 1045 739 41 0 0 0 0 0 0 0
0 0 0 0 0 0 0 7 46 202 9 0 0 0 0 0 8 537 1096 2413 1796 1826 1864 2052 2149 1952 1605 1167 1185 605 237 0 0 0 0 0 0 0
0 0 0 0 0 0 0 0 0 0 0 0 0 0 0 0 0 413 1257 1496 1854 1567 2049 1884 2767 2067 1652 1507 1435 1525 1549 49 0 0 0 0 0 0
0 0 0 0 0 0 0 0 0 0 0 0 0 0 0 8 31 169 355 345 298 323 860 1436 2175 1781 2391 1566 1544 1524 1583 1621 1604 934 0 0 0 0
0 0 0 0 0 0 0 0 0 0 0 0 0 0 2 0 0 2 29 111 429 859 1180 1536 1568 2567 2249 1552 1382 1502 1426 1340 1250 1340 1519 154 0 0
0 0 0 0 0 0 0 0 0 0 0 0 0 0 0 0 5 16 0 3 5 91 298 1189 1058 1374 1833 1729 1813 1218 1485 1366 1462 1350 1288 1460 2091 1074
0 0 0 0 0 0 0 0 0 0 0 0 0 0 0 0 0 0 0 0 0 0 1 11 1 0 6 369 855 870 1442 1474 1293 1199 1106 1086 1549 1901
0 0 0 0 0 0 0 0 0 0 0 0 0 0 0 0 0 0 0 0 0 0 0 0 11 14 3 282 15 54 170 456 582 553 814 545 488 628
0 0 0 0 0 0 0 0 0 0 0 0 0 0 0 0 0 0 0 0 0 0 0 0 0 0 0 0 0 12 11 5 7 53 31 1 29 374
0 0 0 0 0 0 0 0 0 0 0 0 0 0 0 0 0 0 0 0 0 0 0 0 0 0 0 0 0 0 0 0 0 0 0 13 18 527
0 0 0 0 0 0 0 0 0 0 0 0 0 0 0 0 0 0 0 0 0 0 0 0 0 0 1 6 0 0 0 0 0 0 0 0 0 0
0 0 0 0 0 0 0 0 0 0 0 0 0 0 0 0 0 0 0 0 0 0 0 0 0 0 1 2 0 0 0 0 0 0 0 0 0 0
0 0 0 0 0 0 0 0 0 0 0 0 0 0 0 0 0 0 0 0 0 0 0 0 1 0 2 3 1 3 0 0 0 0 0 0 0 0
0 0 0 0 0 0 0 0 0 0 0 0 1 1 4 3 3 3 4 3 4 3 4 3 1 3 3 3 3 2 5 1 0 0 0 0 0 0

GFSNE_con_sbcape_105.txt.gz
CAPE
2427 1905 2026 1327 806 1034 1059 1078 1149 971 939 3048 1625 2730 1865 1768 1649 1704 2255 1020 782 912 1055 401 366 278 369 529 666 742 861 998 818 513 329 142 45 28
1050 2054 2057 1325 1920 1088 917 875 874 942 937 793 784 1415 2514 2038 1449 2265 1928 1226 989 1330 1252 252 379 152 292 233 138 129 162 219 331 233 60 17 0 0
1707 1667 1455 2207 1670 1327 1404 1068 677 705 874 1017 847 1239 3369 3012 2019 2408 1524 2606 966 1075 677 444 350 39 10 57 86 15 0 0 0 35 17 0 0 0
1465 1545 1533 1086 1933 2859 1715 3361 1789 2270 951 2851 1810 1483 2690 1739 1593 3441 1532 1071 1277 557 544 274 292 46 0 26 174 65 1 0 0 0 0 0 0 0
1134 1372 1453 1530 1865 1782 2083 1833 1188 1839 2114 1670 1052 752 1212 1473 1979 3008 3259 2902 889 434 98 2 233 156 26 49 106 140 120 0 0 0 0 0 0 0
1475 1862 1849 1520 1705 1946 1878 2437 2359 2177 1656 1593 1334 1387 1596 2259 3063 1167 1152 762 893 638 529 333 495 282 98 0 0 49 67 0 0 0 0 0 0 0
1421 1479 1585 1171 772 1047 1347 2475 2492 2138 1371 1317 1096 893 1113 1759 1422 1031 1365 1203 1810 1716 1150 1189 1111 929 1049 65 374 192 103 0 0 0 0 0 0 0
2073 1564 1237 1619 1155 1117 924 828 973 2321 2270 1860 1533 1358 3015 2001 1745 1822 2121 1649 1669 1831 2674 2040 1925 895 877 1028 679 591 43 32 0 0 0 0 0 0
1861 1854 2011 794 1054 1211 548 539 528 489 324 1793 2370 2698 2586 2892 2502 2994 2727 2588 2014 1966 2406 2099 2396 2326 2008 1021 704 515 416 56 0 0 0 0 0 0
1544 1273 1105 510 0 0 33 775 965 1359 1610 1285 1804 1122 1086 404 266 994 1907 2181 2259 2109 2502 1700 2229 1993 2009 2087 313 231 559 192 0 0 0 0 0 0
84 27 39 0 0 0 14 65 91 107 0 0 0 0 0 0 0 10 442 1992 2178 1326 1721 1800 1651 1862 2128 1899 1097 520 533 123 0 0 0 0 0 0
0 0 0 0 0 0 0 0 0 0 0 0 9 0 9 25 0 49 612 508 547 592 1292 644 1086 2610 904 1235 1935 2184 1351 221 3 0 0 0 0 0
13 0 0 0 0 0 0 0 0 0 0 0 0 4 33 92 129 85 583 71 15 65 172 751 998 1460 1433 1266 1058 1586 1775 1438 969 641 0 0 0 0
0 0 0 0 0 0 0 0 0 0 0 0 0 0 0 0 0 0 299 21 1 298 128 1224 969 1275 1221 685 582 979 1246 1526 1537 1494 1998 97 0 0
0 0 0 0 0 0 0 0 0 0 0 0 0 0 0 0 20 9 1 2 4 22 1 226 7 11 5 14 73 216 269 510 900 1173 1293 1444 1533 1685
0 0 0 0 0 0 0 0 0 0 0 0 0 0 0 0 0 0 0 0 0 0 0 17 14 0 0 0 0 0 0 27 60 220 898 882 835 824
0 0 0 0 0 0 0 0 0 0 0 0 0 0 0 0 0 0 0 0 0 0 0 0 0 0 0 0 0 0 0 3 9 7 0 0 0 0
0 0 0 0 0 0 0 0 0 0 0 0 0 0 0 0 0 0 0 0 0 0 0 0 0 0 0 0 0 0 0 0 0 0 0 0 0 0
0 0 0 0 0 0 0 0 0 0 0 0 0 0 0 0 0 0 0 0 0 0 0 0 0 0 0 0 0 0 0 0 0 0 0 0 3 0
0 0 0 0 0 0 0 0 0 0 0 0 0 0 0 0 0 0 0 0 0 0 0 0 0 0 0 0 0 0 0 0 0 0 0 0 0 0
0 0 0 0 0 0 0 0 0 0 0 0 0 0 0 0 0 0 0 0 0 0 0 0 0 0 0 5 0 0 0 0 0 0 0 0 0 0
0 0 0 0 0 0 0 0 0 0 0 0 0 0 0 0 0 0 0 0 0 0 0 0 1 1 0 0 0 1 0 0 0 0 0 0 6 0
0 0 0 0 0 0 0 0 0 0 0 0 0 0 0 0 0 0 0 0 0 0 0 0 1 3 1 4 13 7 17 18 31 18 0 0 0 0

GFSNE_con_sbcape_108.txt.gz
CAPE
2733 3482 3005 2269 1775 1883 856 2152 1985 1725 1196 764 943 183 2000 1726 1934 2507 2482 1568 845 1249 800 741 683 478 285 300 282 285 496 624 854 829 594 458 336 190
2362 2520 2966 2462 2104 1838 1304 1623 1698 1363 1449 1484 1225 2529 2765 1760 1837 1913 2287 1082 1333 1022 606 866 678 552 335 252 159 101 48 57 94 226 254 85 26 15
2702 2220 2282 2767 2688 2182 1962 1726 1452 1881 1682 1529 1174 1319 1954 3084 2648 2672 2619 1714 1572 418 573 737 485 479 136 69 57 109 82 6 0 0 35 23 0 0
2451 2630 2519 1749 2265 3254 2553 2586 2154 2603 2408 1261 2559 1051 1414 1969 3381 2784 3021 1011 1539 769 455 566 265 154 150 0 0 21 78 24 0 0 0 0 0 0
2423 2323 2286 2126 2167 2174 2712 2666 2063 2045 2295 2190 2134 1470 1283 1679 1070 1673 1902 2489 2090 372 403 142 79 41 89 10 0 0 105 55 0 0 0 0 0 0
1994 1814 867 1767 2186 2293 1864 2342 1890 2237 1810 1842 1567 1523 1328 1463 921 1642 1442 1866 1645 1884 1479 1714 334 229 266 67 0 0 86 131 5 0 0 0 0 0
2706 2136 2294 1197 518 868 1614 2449 2934 2493 2224 1663 1502 1276 1488 1826 1741 1894 2062 1983 1781 1882 2070 1919 1789 1858 1621 931 154 0 107 96 1 0 0 0 0 0
2025 1959 1357 1479 695 907 907 861 786 1693 2156 1998 1730 1614 1869 1903 1864 2034 1947 1766 1589 2019 1790 1701 1403 1243 1640 1334 689 623 226 165 0 0 0 0 0 0
2479 2575 1498 44 0 2 172 325 390 333 216 967 1478 1642 1675 1830 1157 1052 1103 1261 1228 1369 1620 1430 1592 1884 1686 1357 1068 220 378 60 0 0 0 0 0 0
886 1042 204 0 0 0 0 808 784 1219 599 266 519 188 26 48 15 113 280 858 1455 1344 1408 1531 1211 984 1008 1424 692 51 163 3 14 0 0 0 0 0
0 0 0 0 0 0 28 6 59 1 0 0 0 0 0 0 0 0 319 524 622 344 538 375 724 622 1054 1111 1168 831 46 674 315 0 0 0 0 0
0 0 0 0 0 0 0 0 0 0 0 0 0 3 61 6 0 2 384 85 52 22 44 125 485 612 599 1334 630 647 1134 763 341 333 399 0 0 0
0 0 0 0 0 0 0 0 0 0 0 0 0 12 0 0 1 0 285 0 0 0 0 168 179 277 283 60 217 250 267 380 201 1008 1197 569 0 0
0 0 0 0 0 0 0 0 0 0 0 0 0 0 0 0 0 0 38 0 0 0 116 24 11 0 0 0 0 0 0 0 0 335 1105 1318 575 0
0 0 0 0 0 0 0 0 0 0 0 0 0 0 0 0 0 0 0 0 0 0 0 0 0 0 0 0 0 0 0 0 0 0 0 0 0 1
0 0 0 0 0 0 0 0 0 0 0 0 0 0 0 0 0 0 0 0 0 0 0 0 0 0 0 0 0 0 0 0 0 0 0 0 0 0
0 0 0 0 0 0 0 0 0 0 0 0 0 0 0 0 0 0 0 0 0 0 0 0 0 0 0 0 0 0 0 0 0 0 0 0 0 0
0 0 0 0 0 0 0 0 0 0 0 0 0 0 0 0 0 0 0 0 0 0 0 0 0 0 0 0 0 0 0 0 0 0 0 0 0 0
0 0 0 0 0 0 0 0 0 0 0 0 0 0 0 0 0 0 0 0 0 0 0 0 0 0 0 0 0 0 0 0 0 0 0 0 0 0
0 0 0 0 0 0 0 0 0 0 0 0 0 0 0 0 0 0 0 0 0 0 0 0 0 0 0 0 0 0 0 0 0 0 0 0 0 0
0 0 0 0 0 0 0 0 0 0 0 0 0 0 0 0 0 0 0 0 0 0 0 0 0 3 0 0 0 0 0 0 0 0 0 0 0 0
0 0 0 0 0 0 0 0 0 0 0 0 0 0 0 0 0 0 0 0 0 0 0 0 0 0 0 0 1 1 0 0 0 0 0 0 0 1
0 0 0 0 0 0 0 0 0 0 0 0 0 0 0 0 0 0 0 0 0 0 0 0 0 0 1 4 6 1 2 3 4 3 1 2 10 14

GFSNE_con_sbcape_111.txt.gz
CAPE
1057 1188 1497 1323 1049 1197 838 898 781 393 122 7 288 175 0 0 0 423 931 1384 905 639 825 657 507 504 209 150 144 168 337 475 620 840 816 673 663 688
1222 890 1043 1021 988 1192 1132 1126 747 609 471 535 106 483 93 445 786 923 1060 1643 1209 1222 1110 305 578 594 237 72 55 85 72 54 81 132 276 301 173 116
1161 1121 976 1167 1213 838 1436 1364 1046 1273 733 490 693 681 437 741 962 1361 1595 1640 705 869 273 171 330 492 172 101 0 6 35 36 7 3 21 69 36 0
831 923 977 1146 905 980 1042 1245 1004 1116 857 557 500 787 585 775 339 505 1112 1624 994 1048 447 139 223 313 124 4 1 0 0 0 0 0 0 2 26 2
888 983 799 705 850 508 889 1018 626 767 635 759 812 701 657 220 0 309 964 1290 1352 1352 1303 1532 1181 482 86 34 0 0 0 0 0 0 0 0 0 0
1311 985 556 498 1026 657 867 865 1165 1076 1049 991 743 638 709 1045 715 1027 1174 1196 1144 1140 1278 1050 1158 1114 966 973 16 0 0 0 29 0 0 0 0 0
710 639 630 523 264 330 426 537 623 908 895 1057 941 811 681 954 1178 1053 1050 1144 484 1011 940 1007 960 865 934 1184 362 0 0 52 90 1 0 0 0 0
805 523 0 0 0 0 0 213 208 381 359 739 827 869 808 935 714 124 398 285 510 540 807 944 748 1152 614 1095 462 56 81 101 38 0 0 0 0 0
382 232 0 0 0 0 0 123 253 36 34 179 333 464 334 26 0 0 0 0 43 285 393 729 579 592 368 730 222 118 153 175 0 0 0 0 0 0
0 0 0 0 0 0 0 0 0 0 0 0 0 0 0 0 0 0 0 68 106 99 0 130 212 148 214 404 160 126 143 101 0 0 0 0 0 0
0 0 0 0 0 0 0 0 0 0 0 0 0 0 0 0 0 0 0 0 0 0 0 0 77 0 248 146 4 0 0 0 0 0 0 0 0 0
0 0 0 0 0 0 0 0 0 0 0 0 0 0 0 0 0 4 0 0 0 0 0 0 6 0 0 0 0 0 0 0 0 0 0 0 0 0
0 0 0 0 0 0 0 0 0 0 0 0 0 0 0 0 0 0 0 0 0 0 0 0 0 0 0 0 0 0 0 0 0 0 0 0 0 0
0 0 0 0 0 0 0 0 0 0 0 0 0 0 0 0 0 0 0 0 0 0 0 0 0 0 0 0 0 0 0 0 0 0 0 0 0 0
0 0 0 0 0 0 0 0 0 0 0 0 0 0 0 0 0 0 0 0 0 0 0 0 0 0 0 0 0 0 0 0 0 0 0 0 0 0
0 0 0 0 0 0 0 0 0 0 0 0 0 0 0 0 0 0 0 0 0 0 0 0 0 0 0 0 0 0 0 0 0 0 0 0 0 0
0 0 0 0 0 0 0 0 0 0 0 0 0 0 0 0 0 0 0 0 0 0 0 0 0 0 0 0 0 0 0 0 0 0 0 0 0 0
0 0 0 0 0 0 0 0 0 0 0 0 0 0 0 0 0 0 0 0 0 0 0 0 0 0 0 0 0 0 0 0 0 0 0 0 0 0
0 0 0 0 0 0 0 0 0 0 0 0 0 0 0 0 0 0 0 0 0 0 0 0 0 0 0 0 0 0 0 0 0 0 0 0 0 0
0 0 0 0 0 0 0 0 0 0 0 0 0 0 0 0 0 0 0 0 0 0 0 0 0 0 0 0 0 0 0 0 0 0 0 0 0 0
0 0 0 0 0 0 0 0 0 0 0 0 0 0 0 0 0 0 0 0 0 0 0 0 0 0 0 0 0 0 0 0 0 0 0 0 0 0
0 0 0 0 0 0 0 0 0 0 0 0 0 0 0 0 0 0 0 0 0 0 0 0 0 0 0 0 0 0 0 0 0 0 1 13 6 5
0 0 0 0 0 0 0 0 0 0 0 0 0 0 0 0 0 0 0 0 0 0 0 0 0 0 0 0 1 0 0 0 0 0 0 3 8 11

GFSNE_con_sbcape_114.txt.gz
CAPE
939 808 668 181 1 151 147 0 1 22 53 113 0 234 144 3 52 66 15 405 973 736 161 208 338 245 142 86 122 188 292 407 501 719 1009 936 1049 1188
852 429 583 474 519 649 873 508 212 53 249 14 144 9 237 198 207 704 539 1041 1303 501 480 5 66 146 276 123 36 35 55 51 46 62 129 299 297 300
675 702 579 732 777 1008 746 823 712 607 329 236 233 391 273 264 85 696 975 1262 720 999 552 843 434 179 45 2 12 5 4 19 11 0 0 4 43 32
407 505 564 785 538 558 626 769 531 554 416 331 231 572 322 183 9 545 864 1295 960 997 1280 977 989 670 690 22 0 0 0 0 0 0 0 0 0 0
689 527 498 364 455 251 506 527 389 410 442 517 558 294 367 340 466 623 848 824 883 944 1035 911 839 695 88 75 0 0 0 0 0 0 0 0 0 0
708 634 553 431 462 313 485 603 591 577 546 381 403 357 338 737 588 660 129 313 423 756 622 819 760 370 372 465 64 0 0 0 0 0 0 0 0 0
395 436 138 64 90 248 200 311 335 318 300 414 381 390 401 521 533 226 112 140 79 377 326 661 507 316 331 243 3 0 0 0 0 0 0 0 0 0
249 0 0 0 0 0 0 48 164 272 211 334 392 372 352 248 22 0 0 20 110 40 35 201 212 124 197 86 0 0 0 0 0 0 0 0 0 0
174 0 0 0 0 0 0 0 0 0 5 72 61 0 3 0 0 0 0 0 28 0 0 91 0 0 71 0 0 0 0 0 0 0 0 0 0 1
0 0 0 0 0 0 0 0 0 0 0 0 0 0 0 0 0 0 0 0 0 0 0 0 7 0 0 0 0 0 0 0 0 0 0 0 0 0
0 0 0 0 0 0 0 0 0 0 0 0 0 0 0 0 0 0 0 0 0 0 0 0 0 0 0 0 0 0 0 0 0 0 0 0 0 0
0 0 0 0 0 0 0 0 0 0 0 0 0 0 0 0 0 0 0 0 0 0 0 0 0 0 0 0 0 0 0 0 0 0 0 0 0 0
0 0 0 0 0 0 0 0 0 0 0 0 0 0 0 0 0 0 0 0 0 0 0 0 0 0 0 0 0 0 0 0 0 0 0 0 0 0
0 0 0 0 0 0 0 0 0 0 0 0 0 0 0 0 0 0 0 0 0 0 0 0 0 0 0 0 0 0 0 0 0 0 0 0 0 0
0 0 0 0 0 0 0 0 0 0 0 0 0 0 0 0 0 0 0 0 0 0 0 0 0 0 0 0 0 0 0 0 0 0 0 0 0 0
0 0 0 0 0 0 0 0 0 0 0 0 0 0 0 0 0 0 0 0 0 0 0 0 0 0 0 0 0 0 0 0 0 0 0 0 0 0
0 0 0 0 0 0 0 0 0 0 0 0 0 0 0 0 0 0 0 0 0 0 0 0 0 0 0 0 0 0 0 0 0 0 0 0 0 0
0 0 0 0 0 0 0 0 0 0 0 0 0 0 0 0 0 0 0 0 0 0 0 0 0 0 0 0 0 0 0 0 0 0 0 0 0 0
0 0 0 0 0 0 0 0 0 0 0 0 0 0 0 0 0 0 0 0 0 0 0 0 0 0 0 0 0 0 0 0 0 0 0 0 0 0
0 0 0 0 0 0 0 0 0 0 0 0 0 0 0 0 0 0 0 0 0 0 0 0 0 0 0 0 0 0 0 0 0 0 0 0 0 0
0 0 0 0 0 0 0 0 0 0 0 0 0 0 0 0 0 0 0 0 0 0 0 0 0 0 0 0 0 0 0 0 0 0 0 1 1 0
0 0 0 0 0 0 0 0 0 0 0 0 0 0 0 0 0 0 0 0 0 0 0 0 0 0 0 1 1 1 0 0 0 0 0 1 3 7
0 0 0 0 0 0 0 0 0 0 0 0 0 0 0 0 0 0 0 0 0 0 0 0 0 0 0 0 0 0 0 1 1 0 0 0 0 0

GFSNE_con_sbcape_117.txt.gz
CAPE
529 504 286 12 0 0 26 0 1 52 0 34 3 0 105 181 219 412 271 365 288 221 31 10 31 140 142 70 65 143 204 258 338 454 831 1281 1387 1567
495 319 468 338 217 234 213 190 14 0 10 8 160 0 10 113 271 510 841 770 679 134 586 705 209 0 24 51 32 5 0 14 16 7 24 101 330 477
424 249 256 312 375 390 400 397 354 132 11 59 46 207 180 39 141 497 872 970 673 768 969 680 278 10 0 0 0 0 0 0 6 0 0 0 2 51
310 347 340 373 244 283 357 422 323 223 137 168 75 247 201 252 165 382 373 478 529 768 698 629 100 0 0 0 0 0 0 0 0 0 0 0 0 0
431 422 357 264 250 121 203 319 220 391 332 251 225 125 124 357 435 276 0 107 361 549 603 486 153 6 0 0 0 0 0 0 0 0 0 0 0 0
397 459 497 317 195 206 182 242 334 271 244 132 135 219 159 353 232 28 0 0 112 14 195 151 101 0 0 0 0 0 0 1 0 0 0 0 0 0
292 221 94 54 20 164 237 229 160 112 76 140 163 152 201 99 28 4 0 0 7 0 3 0 2 0 0 0 0 0 0 0 0 0 1 2 0 0
250 0 0 0 0 0 0 42 84 149 131 203 204 145 29 0 0 0 0 0 0 0 0 0 0 0 0 0 0 0 0 0 0 0 0 0 1 0
80 0 0 0 0 0 0 0 0 0 0 58 0 0 0 0 0 0 0 0 0 0 0 0 0 0 0 0 0 0 0 0 0 0 0 0 0 0
0 0 0 0 0 0 0 0 0 0 0 0 0 0 0 0 0 0 0 0 0 0 0 0 0 0 0 0 0 0 0 0 0 0 0 0 0 0
0 0 0 0 0 0 0 0 0 0 0 0 0 0 0 0 0 0 0 0 0 0 0 0 0 0 0 0 0 0 0 0 0 0 0 0 0 0
0 0 0 0 0 0 0 0 0 0 0 0 0 0 0 0 0 0 0 0 0 0 0 0 0 0 0 0 0 0 0 0 0 0 0 0 0 0
0 0 0 0 0 0 0 0 0 0 0 0 0 0 0 0 0 0 0 0 0 0 0 0 0 0 0 0 0 0 0 0 0 0 0 0 0 0
0 0 0 0 0 0 0 0 0 0 0 0 0 0 0 0 0 0 0 0 0 0 0 0 0 0 0 0 0 0 0 0 0 0 0 0 0 0
0 0 0 0 0 0 0 0 0 0 0 0 0 0 0 0 0 0 0 0 0 0 0 0 0 0 0 0 0 0 0 0 0 0 0 0 0 0
0 0 0 0 0 0 0 0 0 0 0 0 0 0 0 0 0 0 0 0 0 0 0 0 0 0 0 0 0 0 0 0 0 0 0 0 0 0
0 0 0 0 0 0 0 0 0 0 0 0 0 0 0 0 0 0 0 0 0 0 0 0 0 0 0 0 0 0 0 0 0 0 0 0 0 0
0 0 0 0 0 0 0 0 0 0 0 0 0 0 0 0 0 0 0 0 0 0 0 0 0 0 0 0 0 0 0 0 0 0 0 0 0 0
0 0 0 0 0 0 0 0 0 0 0 0 0 0 0 0 0 0 0 0 0 0 0 0 0 0 0 0 0 0 0 0 0 0 0 0 0 0
0 0 0 0 0 0 0 0 0 0 0 0 0 0 0 0 0 0 0 0 0 0 0 0 0 0 0 0 0 0 0 0 0 0 0 0 0 0
0 0 0 0 0 0 0 0 0 0 0 0 0 0 0 0 0 0 0 0 0 0 0 0 0 0 0 0 0 0 0 0 0 0 0 0 0 0
0 0 0 0 0 0 0 0 0 0 0 0 0 0 0 0 0 0 0 0 0 0 0 0 0 0 0 0 0 0 0 0 0 0 0 0 0 1
0 0 0 0 0 0 0 0 0 0 0 0 0 0 0 0 0 0 0 0 0 0 0 0 0 0 0 0 0 0 0 0 0 0 0 0 0 0

GFSNE_con_sbcape_123.txt.gz
CAPE
1626 1788 1815 1258 684 864 1230 1071 1095 493 287 937 1140 1667 1369 1857 1400 2128 1710 1 0 0 0 0 0 0 0 0 0 22 63 273 191 242 483 1393 1631 1614
1377 1925 2238 1571 1406 1212 1185 1318 1146 1356 787 743 1198 1694 1870 1442 1035 1324 1090 836 0 0 0 0 0 0 0 0 0 0 2 7 3 0 0 37 249 724
1689 1899 1928 1826 1315 1442 1607 1793 1601 1537 1172 939 1127 1627 1891 2047 1667 1201 1420 1669 0 0 0 0 0 0 1 2 2 1 0 0 0 0 0 0 0 3
1583 1768 1817 1270 1799 1888 1741 2161 1906 1793 1393 1507 1488 1525 1838 1887 1115 1452 1060 1135 0 0 0 0 0 0 0 0 0 1 1 1 1 0 0 0 0 0
1650 1624 1502 1604 1964 1609 1953 1847 1164 1756 1470 1794 1227 1054 1274 1413 724 1025 609 442 170 0 0 0 0 0 0 0 0 0 0 0 0 1 0 0 1 2
1541 1482 1476 1569 1751 1808 1591 1975 1635 2034 1756 1460 1059 703 1064 1511 305 809 464 131 385 0 0 0 0 0 0 0 0 0 0 0 0 0 0 0 0 1
1206 1355 1426 854 266 955 2031 1923 1879 2061 1976 1556 741 975 1174 423 276 452 957 2 8 97 0 0 0 0 0 0 0 0 0 0 0 0 0 0 0 0
521 791 1163 40 10 0 0 37 227 1715 1502 1753 1687 1626 1164 155 112 160 597 900 6 0 1 0 0 0 0 0 0 0 0 0 0 0 0 0 0 0
950 1243 1093 170 15 311 0 0 0 0 0 1319 1523 1496 282 95 94 179 407 172 0 0 14 0 0 0 0 0 0 0 0 0 0 0 0 0 0 0
218 692 755 83 24 28 0 0 0 0 0 0 32 50 37 35 92 203 379 0 0 0 0 4 0 0 0 0 0 0 0 0 0 0 0 0 0 0
1 0 1 36 0 0 0 0 0 0 0 0 0 0 0 0 0 89 121 291 133 0 0 0 0 0 0 0 0 0 0 0 0 0 0 0 0 0
0 0 0 0 0 0 0 0 0 0 0 0 0 0 0 0 0 0 0 0 0 0 0 0 0 3 1 0 0 0 0 0 0 0 0 0 0 0
0 0 0 0 0 0 0 0 0 0 0 0 0 0 0 0 0 0 0 0 0 0 0 0 0 0 0 0 0 0 0 0 0 0 0 0 0 0
0 0 0 0 0 0 0 0 0 0 0 0 0 0 0 0 0 0 0 0 0 0 0 0 0 0 0 0 0 0 0 0 0 0 0 0 0 0
0 0 0 0 0 0 0 0 0 0 0 0 0 0 0 0 0 0 0 0 0 0 0 0 0 0 0 0 0 0 0 0 0 0 0 0 0 0
0 0 0 0 0 0 0 0 0 0 0 0 0 0 0 0 0 0 0 0 0 0 0 0 0 0 0 0 0 0 0 0 0 0 0 0 0 0
0 0 0 0 0 0 0 0 0 0 0 0 0 0 0 0 0 0 0 0 0 0 0 0 0 0 0 0 0 0 0 0 0 0 0 0 0 0
0 0 0 0 0 0 0 0 0 0 0 0 0 0 0 0 0 0 0 0 0 0 0 0 0 0 0 0 0 0 0 0 0 0 0 0 0 0
0 0 0 0 0 0 0 0 0 0 0 0 0 0 0 0 0 0 0 0 0 0 0 0 0 0 0 0 0 0 0 0 0 0 0 0 0 0
0 0 0 0 0 0 0 0 0 0 0 0 0 0 0 0 0 0 0 0 0 0 0 0 0 0 0 0 0 0 0 0 0 0 0 0 0 0
0 0 0 0 0 0 0 0 0 0 0 0 0 0 0 0 0 0 0 0 0 0 0 0 0 0 0 0 0 0 0 0 0 0 0 0 0 0
0 0 0 0 0 0 0 0 0 0 0 0 0 0 0 0 0 0 0 0 0 0 0 0 0 0 0 0 0 0 0 0 0 0 0 0 0 0
0 0 0 0 0 0 0 0 0 0 0 0 0 0 0 0 0 0 0 0 0 0 0 0 0 0 0 0 0 0 0 0 0 0 5 0 0 0